Location: Lafig�re
(44.4503°N, 4.0357°E)
Time: 16:29:13
(UTC+00:00)

ATLAS 3B R/B - Pass Details

Date: 24 September 2020
Orbit: 1016 x 1179 km, 63.8° (Epoch: 04 October)

Event Time Altitude Azimuth Distance (km) Brightness Sun altitude
Rises 18:29:02 0° 323° (NW) 3,813 6.3 -10.1°
Reaches altitude 10° 18:32:04 10° 335° (NNW) 2,879 5.5 -10.6°
Maximum altitude 18:37:52 29° 34° (NNE) 1,882 3.8 -11.7°
Enters shadow 18:42:34 15° 85° (E) 2,620 4.1 -12.5°
